Location: Arrodets-la-Barthe
(43.0306°N, 0.2829°E)
Time: 16:00:30
(UTC+00:00)

Meteor 1-21 Rocket - Pass Details

Date: 24 October 2021
Orbit: 834 x 907 km, 81.2° (Epoch: 06 December)

Event Time Altitude Azimuth Distance (km) Brightness Sun altitude
Rises 17:26:59 0° 350° (N) 3,517 7.4 -5.3°
Reaches altitude 10° 17:29:27 10° 351° (N) 2,581 6.7 -5.7°
Maximum altitude 17:35:22 86° 79° (E) 913 4.4 -6.8°
Drops below altitude 10° 17:41:17 10° 170° (S) 2,581 6.7 -7.8°
Sets 17:43:44 0° 171° (S) 3,518 7.4 -8.3°
